Location: Peebles
(55.6412°N, 3.1714°W)
Time: 14:45:49
(UTC+01:00)

Cosmos 1536 Rocket - Pass Details

Date: 26 September 2021
Orbit: 604 x 633 km, 82.5° (Epoch: 17 October)

Event Time Altitude Azimuth Distance (km) Brightness Sun altitude
Rises 20:30:49 0° 350° (N) 2,925 7.4 -13.4°
Reaches altitude 10° 20:33:09 10° 357° (N) 2,009 6.4 -13.7°
Maximum altitude 20:37:26 46° 71° (ENE) 839 3.9 -14.3°
Enters shadow 20:40:03 21° 136° (SE) 1,385 4.8 -14.6°
